SUI1 LSZH-LIMJ

Flight info

Callsign SUI1
Flight time 0h 39m
Altitude 25000
Route SODR7A SODRI RAPUR RATAP BTA DOKAR SUNEV ELVIN RIFFI PNZ PNZ1C
Aircraft A319/J-V/N

Departure

Time 2026-05-08 13:28
Airport Zürich Airport (LSZH)

Arrival

Time 2026-05-08 14:07
Airport Genoa Cristoforo Colombo Airport (LIMJ)
Time Latitude Longitude Altitude Speed Heading
2026-05-08 13:26 47.25070 8.01402 5959 ft 353 kts 198°
2026-05-08 13:26 47.22653 8.00958 5981 ft 352 kts 176°
2026-05-08 13:26 47.20296 8.01862 6012 ft 351 kts 154°
2026-05-08 13:26 47.18345 8.03978 6028 ft 350 kts 133°
2026-05-08 13:27 47.17071 8.07001 6046 ft 350 kts 110°
2026-05-08 13:27 47.16659 8.10501 6068 ft 349 kts 89°
2026-05-08 13:27 47.17163 8.13960 6083 ft 349 kts 66°
2026-05-08 13:27 47.18513 8.16892 6104 ft 348 kts 44°
2026-05-08 13:28 47.20508 8.18887 6117 ft 347 kts 25°
2026-05-08 13:28 47.22708 8.20359 6130 ft 347 kts 26°
2026-05-08 13:28 47.24641 8.22461 6146 ft 348 kts 48°
2026-05-08 13:28 47.25884 8.25484 6177 ft 347 kts 70°
2026-05-08 13:29 47.26264 8.28973 6212 ft 347 kts 91°
2026-05-08 13:29 47.26066 8.32516 6225 ft 348 kts 97°
2026-05-08 13:29 47.25740 8.36009 6228 ft 348 kts 98°
2026-05-08 13:29 47.25366 8.39531 6235 ft 348 kts 102°
2026-05-08 13:30 47.24410 8.42777 6250 ft 348 kts 125°
2026-05-08 13:30 47.22788 8.45410 6255 ft 348 kts 137°
2026-05-08 13:30 47.20905 8.47648 6276 ft 348 kts 144°
2026-05-08 13:30 47.18806 8.49406 6299 ft 348 kts 158°
2026-05-08 13:31 47.16504 8.50503 6322 ft 348 kts 165°
2026-05-08 13:31 47.14156 8.51295 6607 ft 338 kts 168°
2026-05-08 13:31 47.11924 8.51927 7408 ft 319 kts 169°
2026-05-08 13:31 47.09782 8.52524 8164 ft 307 kts 170°
2026-05-08 13:32 47.07651 8.53033 8946 ft 314 kts 173°
2026-05-08 13:32 47.05443 8.53384 9755 ft 323 kts 176°
2026-05-08 13:32 47.03182 8.53533 10551 ft 326 kts 180°
2026-05-08 13:32 47.00914 8.53460 11366 ft 327 kts 184°
2026-05-08 13:33 46.98629 8.53317 12136 ft 332 kts 181°
2026-05-08 13:33 46.96337 8.53394 12883 ft 335 kts 178°
2026-05-08 13:33 46.94002 8.53617 13698 ft 337 kts 176°
2026-05-08 13:33 46.91665 8.53990 14489 ft 338 kts 173°
2026-05-08 13:34 46.89344 8.54488 15285 ft 337 kts 173°
2026-05-08 13:34 46.87031 8.54980 16102 ft 334 kts 173°
2026-05-08 13:34 46.84750 8.55453 16939 ft 328 kts 174°
2026-05-08 13:34 46.82510 8.55917 17827 ft 322 kts 174°
2026-05-08 13:35 46.80280 8.56384 18271 ft 332 kts 174°
2026-05-08 13:35 46.77913 8.56854 18290 ft 353 kts 174°
2026-05-08 13:35 46.75407 8.57315 18332 ft 373 kts 174°
2026-05-08 13:35 46.72762 8.57763 18343 ft 392 kts 175°
2026-05-08 13:36 46.69984 8.58202 18366 ft 410 kts 175°
2026-05-08 13:36 46.67089 8.58629 18340 ft 427 kts 176°
2026-05-08 13:36 46.64074 8.59050 18357 ft 442 kts 176°
2026-05-08 13:36 46.62021 8.59341 18365 ft 452 kts 175°
2026-05-08 13:37 46.59307 8.59729 18377 ft 462 kts 175°
2026-05-08 13:37 46.56087 8.60193 18386 ft 466 kts 175°
2026-05-08 13:37 46.52873 8.60651 18379 ft 460 kts 175°
2026-05-08 13:37 46.49730 8.61090 18359 ft 445 kts 176°
2026-05-08 13:38 46.46724 8.61503 18194 ft 424 kts 176°
2026-05-08 13:38 46.43851 8.61916 17728 ft 406 kts 175°
2026-05-08 13:38 46.41021 8.62327 17602 ft 422 kts 175°
2026-05-08 13:38 46.38043 8.62755 17576 ft 438 kts 175°
2026-05-08 13:39 46.34953 8.63197 17576 ft 453 kts 175°
2026-05-08 13:39 46.31767 8.63649 17576 ft 467 kts 175°
2026-05-08 13:39 46.28485 8.64109 17583 ft 480 kts 175°
2026-05-08 13:39 46.25126 8.64574 17566 ft 491 kts 175°
2026-05-08 13:40 46.21709 8.65043 17564 ft 495 kts 175°
2026-05-08 13:40 46.18324 8.65505 17530 ft 488 kts 175°
2026-05-08 13:40 46.14997 8.65952 17526 ft 470 kts 175°
2026-05-08 13:40 46.11876 8.66791 17377 ft 447 kts 163°
2026-05-08 13:41 46.09049 8.68404 16918 ft 427 kts 157°
2026-05-08 13:41 46.06419 8.70185 16422 ft 409 kts 155°
2026-05-08 13:41 46.03927 8.71984 15951 ft 393 kts 154°
2026-05-08 13:41 46.01542 8.73766 15498 ft 379 kts 153°
2026-05-08 13:42 45.99253 8.75510 15093 ft 366 kts 153°
2026-05-08 13:42 45.97074 8.77185 14697 ft 354 kts 153°
2026-05-08 13:42 45.94917 8.78849 14100 ft 350 kts 153°
2026-05-08 13:42 45.92781 8.80500 13456 ft 347 kts 153°
2026-05-08 13:43 45.90667 8.82130 12792 ft 343 kts 152°
2026-05-08 13:43 45.88577 8.83743 12135 ft 339 kts 152°
2026-05-08 13:43 45.86506 8.85344 11507 ft 336 kts 152°
2026-05-08 13:43 45.84459 8.86925 10879 ft 333 kts 152°
2026-05-08 13:44 45.82425 8.88492 10266 ft 330 kts 152°
2026-05-08 13:44 45.80416 8.90038 9859 ft 327 kts 152°
2026-05-08 13:44 45.78410 8.91582 9031 ft 329 kts 152°
2026-05-08 13:44 45.76395 8.93135 8262 ft 329 kts 152°
2026-05-08 13:45 45.74439 8.94643 8150 ft 308 kts 152°
2026-05-08 13:45 45.72561 8.96089 7498 ft 308 kts 152°
2026-05-08 13:45 45.71308 8.97053 7021 ft 310 kts 152°
2026-05-08 13:45 45.69400 8.98514 6285 ft 312 kts 152°
2026-05-08 13:46 45.67435 8.99827 5676 ft 309 kts 164°
2026-05-08 13:46 45.65386 9.00439 5435 ft 294 kts 171°
2026-05-08 13:46 45.63401 9.00792 5199 ft 281 kts 174°
2026-05-08 13:46 45.61493 9.01016 4958 ft 269 kts 176°
2026-05-08 13:47 45.59633 9.01152 4505 ft 268 kts 178°
2026-05-08 13:47 45.57776 9.01219 4050 ft 266 kts 179°
2026-05-08 13:47 45.55927 9.01229 3592 ft 265 kts 180°
2026-05-08 13:47 45.54089 9.01195 3137 ft 264 kts 181°
2026-05-08 13:48 45.52175 9.01118 3144 ft 295 kts 182°
2026-05-08 13:48 45.50000 9.00991 3610 ft 329 kts 182°
2026-05-08 13:48 45.47692 9.00841 4806 ft 334 kts 182°
2026-05-08 13:48 45.45356 9.00689 6122 ft 336 kts 182°
2026-05-08 13:49 45.43026 9.00532 7439 ft 334 kts 182°
2026-05-08 13:49 45.40758 9.00369 8798 ft 328 kts 182°
2026-05-08 13:49 45.38499 9.00201 10224 ft 320 kts 183°
2026-05-08 13:49 45.36291 9.00036 11229 ft 325 kts 183°
2026-05-08 13:50 45.33949 8.99863 11371 ft 349 kts 183°
2026-05-08 13:50 45.31451 8.99678 11596 ft 368 kts 183°
2026-05-08 13:50 45.28831 8.99483 11893 ft 385 kts 183°
2026-05-08 13:50 45.26098 8.99279 12168 ft 401 kts 183°
2026-05-08 13:51 45.23277 8.99068 12396 ft 409 kts 183°
2026-05-08 13:51 45.20407 8.98855 12532 ft 417 kts 183°
2026-05-08 13:51 45.17487 8.98637 12691 ft 420 kts 183°
2026-05-08 13:51 45.14576 8.98415 12827 ft 417 kts 184°
2026-05-08 13:52 45.11703 8.98194 12920 ft 410 kts 184°
2026-05-08 13:52 45.08878 8.97977 12994 ft 401 kts 184°
2026-05-08 13:52 45.06123 8.97764 13050 ft 392 kts 184°
2026-05-08 13:52 45.03405 8.97558 13105 ft 392 kts 183°
2026-05-08 13:53 45.00673 8.97480 13168 ft 394 kts 180°
2026-05-08 13:53 44.97937 8.97731 13231 ft 395 kts 172°
2026-05-08 13:53 44.95321 8.98738 13278 ft 394 kts 159°
2026-05-08 13:53 44.92873 9.00413 13314 ft 388 kts 153°
2026-05-08 13:54 44.90500 9.02136 13335 ft 378 kts 153°
2026-05-08 13:54 44.88203 9.03781 13204 ft 362 kts 154°
2026-05-08 13:54 44.86006 9.05341 13004 ft 344 kts 155°
2026-05-08 13:54 44.83894 9.06776 12764 ft 329 kts 155°
2026-05-08 13:55 44.81864 9.08133 12415 ft 318 kts 156°
2026-05-08 13:55 44.79854 9.09330 12058 ft 309 kts 159°
2026-05-08 13:55 44.75939 9.11464 11326 ft 295 kts 159°
2026-05-08 13:56 44.74031 9.12461 10938 ft 291 kts 161°
2026-05-08 13:56 44.72099 9.13298 10439 ft 291 kts 164°
2026-05-08 13:56 44.70147 9.14058 9936 ft 291 kts 166°
2026-05-08 13:56 44.68174 9.14684 9439 ft 289 kts 168°
2026-05-08 13:57 44.66209 9.15182 9026 ft 284 kts 173°
2026-05-08 13:57 44.64265 9.15308 8750 ft 276 kts 181°
2026-05-08 13:57 44.62399 9.15132 8450 ft 269 kts 185°
2026-05-08 13:57 44.60551 9.14855 8103 ft 264 kts 187°
2026-05-08 13:58 44.58752 9.14484 7759 ft 259 kts 188°
2026-05-08 13:58 44.56987 9.14091 7409 ft 255 kts 188°
2026-05-08 13:58 44.55251 9.13702 7061 ft 251 kts 188°
2026-05-08 13:58 44.53536 9.13318 6710 ft 248 kts 188°
2026-05-08 13:59 44.51843 9.12939 6356 ft 245 kts 188°
2026-05-08 13:59 44.50181 9.12566 6113 ft 235 kts 189°
2026-05-08 13:59 44.48621 9.12206 5965 ft 221 kts 189°
2026-05-08 13:59 44.47137 9.11861 5750 ft 211 kts 189°
2026-05-08 14:00 44.45721 9.11532 5570 ft 198 kts 189°
2026-05-08 14:00 44.44419 9.11227 5402 ft 182 kts 189°
2026-05-08 14:00 44.43206 9.10963 5187 ft 171 kts 187°
2026-05-08 14:00 44.42084 9.11153 4899 ft 164 kts 153°
2026-05-08 14:01 44.41175 9.12071 4572 ft 160 kts 141°
2026-05-08 14:01 44.40314 9.13043 4219 ft 158 kts 141°
2026-05-08 14:01 44.39449 9.14023 3801 ft 162 kts 143°
2026-05-08 14:01 44.38389 9.14510 3262 ft 166 kts 184°
2026-05-08 14:02 44.37327 9.13911 2811 ft 165 kts 223°
2026-05-08 14:02 44.36798 9.12590 2536 ft 151 kts 252°
2026-05-08 14:02 44.36492 9.11210 2345 ft 147 kts 256°
2026-05-08 14:02 44.36323 9.09827 2162 ft 143 kts 269°
2026-05-08 14:03 44.36365 9.08406 2001 ft 151 kts 278°
2026-05-08 14:03 44.36507 9.06912 1999 ft 160 kts 282°
2026-05-08 14:03 44.36777 9.05373 2038 ft 165 kts 288°
2026-05-08 14:03 44.37122 9.03835 2080 ft 165 kts 290°
2026-05-08 14:04 44.37480 9.02332 2113 ft 159 kts 290°
2026-05-08 14:04 44.37834 9.00893 2106 ft 154 kts 291°
2026-05-08 14:04 44.38176 8.99433 2061 ft 164 kts 289°
2026-05-08 14:04 44.38515 8.97895 2023 ft 169 kts 289°
2026-05-08 14:05 44.38794 8.96375 1872 ft 156 kts 285°
2026-05-08 14:05 44.39057 8.94906 1580 ft 156 kts 288°
2026-05-08 14:05 44.39345 8.93446 1360 ft 156 kts 288°
2026-05-08 14:05 44.39619 8.91999 1079 ft 152 kts 288°
2026-05-08 14:06 44.39901 8.90577 845 ft 150 kts 289°
2026-05-08 14:06 44.40189 8.89211 565 ft 148 kts 290°
2026-05-08 14:06 44.40486 8.87788 415 ft 152 kts 288°
2026-05-08 14:06 44.40746 8.86408 160 ft 141 kts 290°
2026-05-08 14:07 44.41005 8.85143 23 ft 129 kts 291°
2026-05-08 14:07 44.41211 8.84123 21 ft 79 kts 288°
2026-05-08 14:07 44.41288 8.83829 19 ft 19 kts 304°
2026-05-08 14:07 44.41367 8.83747 19 ft 11 kts 348°
2026-05-08 14:08 44.41414 8.83778 23 ft 7 kts 58°
2026-05-08 14:08 44.41418 8.83850 19 ft 8 kts 103°
2026-05-08 14:08 44.41404 8.83927 19 ft 8 kts 103°
2026-05-08 14:08 44.41382 8.84005 21 ft 9 kts 123°
2026-05-08 14:09 44.41377 8.84050 19 ft 0 kts 89°
2026-05-08 14:09 44.41376 8.84056 19 ft 7 kts 94°
2026-05-08 14:10 44.41338 8.84254 19 ft 25 kts 103°
2026-05-08 14:10 44.41336 8.84432 20 ft 15 kts 62°
2026-05-08 14:10 44.41387 8.84533 20 ft 12 kts 54°
2026-05-08 14:10 44.41413 8.84651 22 ft 14 kts 99°
2026-05-08 14:11 44.41403 8.84721 20 ft 4 kts 94°
2026-05-08 14:11 44.41396 8.84767 22 ft 4 kts 105°
2026-05-08 14:11 44.41386 8.84814 20 ft 5 kts 108°
2026-05-08 14:11 44.41378 8.84856 21 ft 4 kts 92°
2026-05-08 14:12 44.41396 8.84896 21 ft 5 kts 38°
2026-05-08 14:12 44.41412 8.84918 20 ft 2 kts 50°
2026-05-08 14:12 44.41416 8.84924 22 ft 0 kts 49°